Content
SEND FEEDBACK

Daily
Averages
Monthly
Summary
United States of America

VANDALIA, ILLINOIS


Home > North America > United States > Illinois
Elevation: 535 feet     Latitude: 38 58N     Longitude: 089 10W

WEATHER
 
SELECT A DAY
Number of Records: 335,797;   Date Range: 7/17/01 - 12/19/14
 
SHARE

PRINT THIS DATA

[ ← Previous Day ]
WEATHER ALMANAC - JANUARY 31, 2013
[ Next Day → ]
[ °C ]   °F
Weather ElementAverageHighLow
Temperature27.2 °F32.9 °F (1:35 pm)14 °F (11:55 pm)
Dewpoint19 °F30.4 °F (3:55 pm)2.3 °F (11:55 pm)
Humidity71.4 %99 % (3:55 pm)60 % (11:55 pm)
Barometer30.04 in30.34 in (11:55 pm)29.88 in (12:35 am)
Wind Speed17.5 mph27.6 mph (5:35 pm)
Wind Gust35.7 mph (5:55 pm)
Weather ElementAverage
Visibility8.7 mi
Wind DirectionWNW (278.2 °)

Weather ElementTotal
Precipitation---
Heating Degree Days41.6 (Base 65)
Averaged from 71 records on January 31, 2013
WEATHER CONDITIONS BREAKOUT
WIND DIRECTION BREAKOUT
WEATHER BY HOUR - JANUARY 31, 2013
[ °C ]   °F
Local TimeTemperatureDewpointHumidityBarometerVisibilityWind DirectionWind SpeedGust SpeedPrecipitationEventsConditions
12:35 AM30.0 °F22.1 °F72 %29.88 in10.0 miWest (280°)16.1 mph24.2 mphOvercast
12:55 AM29.7 °F22.1 °F73 %29.89 in10.0 miWest (280°)13.8 mph25.3 mphSnowLight Snow
1:15 AM30.0 °F21.0 °F69 %29.89 in10.0 miWest (270°)19.6 mph25.3 mphOvercast
1:35 AM29.3 °F21.7 °F73 %29.90 in10.0 miWest (280°)21.9 mph27.6 mphSnowLight Snow
1:55 AM29.3 °F21.6 °F73 %29.91 in10.0 miWest (270°)20.7 mph28.8 mphOvercast
2:15 AM29.1 °F21.6 °F73 %29.92 in10.0 miWest (280°)19.6 mph26.5 mphSnowLight Snow
2:35 AM29.3 °F21.4 °F72 %29.92 in10.0 miWest (280°)16.1 mph23.0 mphOvercast
2:55 AM28.4 °F23.5 °F82 %29.92 in5.0 miWest (260°)18.4 mph26.5 mphSnowLight Snow
3:15 AM28.4 °F22.1 °F77 %29.92 in10.0 miWest (270°)16.1 mph23.0 mphMostly Cloudy
3:35 AM28.4 °F21.2 °F74 %29.92 in10.0 miWest (270°)19.6 mph25.3 mphOvercast
3:55 AM28.6 °F21.0 °F73 %29.93 in10.0 miWest (270°)20.7 mph28.8 mphOvercast
4:15 AM28.6 °F21.4 °F74 %29.93 in10.0 miWest (270°)17.3 mph25.3 mphOvercast
4:35 AM28.8 °F20.1 °F70 %29.93 in10.0 miWNW (290°)13.8 mph24.2 mphOvercast
4:55 AM29.1 °F21.4 °F73 %29.93 in10.0 miWest (270°)18.4 mph21.9 mphOvercast
5:15 AM29.1 °F21.2 °F72 %29.93 in10.0 miWest (270°)16.1 mph23.0 mphOvercast
5:35 AM29.3 °F21.4 °F72 %29.93 in10.0 miWest (260°)17.3 mph24.2 mphOvercast
5:55 AM29.1 °F21.6 °F73 %29.93 in10.0 miWest (260°)15.0 mph19.6 mphOvercast
6:15 AM29.1 °F22.3 °F76 %29.93 in10.0 miWest (260°)13.8 mph18.4 mphOvercast
6:35 AM28.4 °F21.2 °F74 %29.94 in10.0 miWSW (250°)16.1 mph20.7 mphMostly Cloudy
6:55 AM29.1 °F19.9 °F69 %29.95 in10.0 miWest (270°)18.4 mph24.2 mphScattered Clouds
7:15 AM28.8 °F19.0 °F67 %29.96 in10.0 miWest (270°)15.0 mphClear
7:35 AM28.9 °F20.1 °F70 %29.97 in10.0 miWest (260°)13.8 mph19.6 mphScattered Clouds
7:55 AM30.2 °F21.2 °F69 %29.97 in10.0 miWest (260°)11.5 mphOvercast
8:15 AM29.7 °F19.6 °F66 %29.99 in10.0 miWest (270°)19.6 mph25.3 mphOvercast
8:35 AM29.8 °F19.9 °F67 %29.99 in10.0 miWest (270°)16.1 mph23.0 mphOvercast
8:55 AM30.2 °F19.9 °F66 %30.00 in10.0 miWest (260°)10.4 mphOvercast
9:15 AM30.2 °F20.7 °F68 %30.00 in10.0 miWest (260°)13.8 mphOvercast
9:35 AM30.6 °F22.1 °F71 %30.01 in10.0 miWSW (240°)16.1 mphOvercast
9:55 AM30.9 °F20.8 °F66 %30.02 in10.0 miWest (260°)16.1 mphOvercast
10:15 AM30.9 °F20.7 °F66 %30.03 in10.0 miWSW (240°)19.6 mph26.5 mphOvercast
10:35 AM31.1 °F21.0 °F66 %30.03 in10.0 miWSW (240°)16.1 mphOvercast
10:55 AM31.1 °F21.2 °F67 %30.04 in10.0 miWest (260°)18.4 mph24.2 mphOvercast
11:15 AM31.8 °F21.9 °F67 %30.03 in10.0 miWSW (240°)23.0 mph27.6 mphOvercast
11:35 AM32.0 °F22.3 °F67 %30.02 in10.0 miWSW (240°)19.6 mph28.8 mphOvercast
11:55 AM32.2 °F22.5 °F67 %30.01 in10.0 miWSW (250°)16.1 mph23.0 mphOvercast
12:15 PM32.2 °F22.5 °F67 %30.01 in10.0 miWest (260°)18.4 mph23.0 mphOvercast
12:35 PM32.4 °F23.2 °F69 %30.00 in10.0 miWest (260°)18.4 mph23.0 mphOvercast
12:55 PM32.4 °F22.8 °F68 %30.00 in10.0 miWest (260°)16.1 mph25.3 mphOvercast
1:15 PM32.5 °F23.4 °F69 %29.99 in10.0 miWest (260°)16.1 mph21.9 mphOvercast
1:35 PM32.9 °F23.9 °F69 %29.99 in10.0 miWest (270°)17.3 mph24.2 mphSnowLight Snow
1:55 PM32.9 °F24.4 °F71 %29.98 in10.0 miWest (260°)15.0 mphOvercast
2:15 PM32.5 °F25.5 °F75 %29.98 in4.0 miWest (260°)17.3 mph23.0 mphSnowLight Snow
2:35 PM32.0 °F26.6 °F80 %29.99 in7.0 miWest (270°)13.8 mphOvercast
2:55 PM32.0 °F28.0 °F85 %30.00 in2.0 miWest (280°)15.0 mph20.7 mphSnowLight Snow
3:15 PM31.6 °F28.6 °F88 %30.00 in1.5 miWest (280°)13.8 mph20.7 mphSnowLight Snow
3:35 PM31.1 °F28.8 °F91 %30.01 in1.0 miWest (280°)16.1 mph19.6 mphSnowLight Snow
3:55 PM30.6 °F30.4 °F99 %30.02 in0.5 miWest (280°)10.4 mphSnowSnow
4:15 PM30.0 °F27.7 °F91 %30.02 in1.2 miWNW (290°)19.6 mph23.0 mphSnowLight Snow
4:35 PM29.3 °F25.5 °F86 %30.04 in3.0 miWest (280°)18.4 mph24.2 mphSnowLight Snow
4:55 PM28.4 °F24.3 °F84 %30.05 in1.2 miWNW (300°)18.4 mph25.3 mphSnowLight Snow
5:15 PM28.9 °F19.6 °F68 %30.06 in10.0 miWNW (300°)20.7 mph27.6 mphOvercast
5:35 PM26.2 °F19.0 °F74 %30.08 in4.0 miNW (320°)27.6 mph31.1 mphSnowLight Snow
5:55 PM24.4 °F18.0 °F76 %30.11 in3.0 miNW (320°)21.9 mph35.7 mphSnowLight Snow
6:15 PM23.7 °F14.5 °F68 %30.12 in7.0 miNW (310°)15.0 mph27.6 mphOvercast
6:35 PM22.6 °F12.9 °F66 %30.13 in10.0 miNW (310°)21.9 mph31.1 mphScattered Clouds
6:55 PM21.9 °F10.6 °F62 %30.15 in10.0 miNW (310°)20.7 mph31.1 mphClear
7:15 PM21.2 °F10.6 °F64 %30.17 in10.0 miWNW (300°)21.9 mph33.4 mphClear
7:35 PM20.5 °F11.3 °F68 %30.18 in10.0 miNW (310°)16.1 mph21.9 mphClear
7:55 PM20.1 °F10.8 °F67 %30.19 in10.0 miNW (310°)19.6 mph24.2 mphScattered Clouds
8:15 PM19.4 °F8.4 °F62 %30.20 in10.0 miNW (310°)15.0 mph31.1 mphClear
8:35 PM19.0 °F9.7 °F67 %30.21 in10.0 miWNW (300°)15.0 mph25.3 mphScattered Clouds
8:55 PM19.2 °F9.3 °F65 %30.22 in10.0 miNW (310°)18.4 mph26.5 mphOvercast
9:15 PM19.2 °F10.6 °F69 %30.23 in10.0 miNW (310°)18.4 mph26.5 mphOvercast
9:35 PM18.5 °F10.2 °F70 %30.25 in7.0 miNW (310°)21.9 mph27.6 mphSnowLight Snow
9:55 PM18.5 °F9.3 °F67 %30.25 in10.0 miWNW (290°)19.6 mph27.6 mphOvercast
10:15 PM17.8 °F8.4 °F67 %30.27 in10.0 miNW (310°)15.0 mph29.9 mphOvercast
10:35 PM16.7 °F8.1 °F69 %30.28 in10.0 miWNW (300°)18.4 mph27.6 mphMostly Cloudy
10:55 PM16.0 °F5.0 °F62 %30.30 in10.0 miWNW (290°)20.7 mph29.9 mphScattered Clouds
11:15 PM15.8 °F6.8 °F68 %30.32 in10.0 miWNW (300°)24.2 mph34.5 mphMostly Cloudy
11:35 PM14.4 °F3.2 °F61 %30.33 in10.0 miNW (310°)17.3 mph28.8 mphScattered Clouds
11:55 PM14.0 °F2.3 °F60 %30.34 in10.0 miWNW (300°)13.8 mph26.5 mphClear
Hourly data recorded from KSLO, located miles away from Vandalia, Illinois







STORIES FROM OUR PARTNERS